N1OTX Weather Reports


time (UTC)temp
F
wind
direction
speed
knots
gust
knots
rain 1hr
in
rain 24hr
in
rain mn
in
humidity
%
barometer
mb
20240521031008 53 0.0 1.7 0.00 0.00 0.00 90 1016.5
20240521030508 53 0.0 0.0 0.00 0.00 0.00 89 1016.5
20240521030038 53 0.0 0.0 0.00 0.00 0.00 89 1016.6
20240521025508 53 0.0 0.9 0.00 0.00 0.00 89 1016.6
20240521025038 53 0.0 1.7 0.00 0.00 0.00 89 1016.7
20240521024508 53 0.0 0.0 0.00 0.00 0.00 89 1016.7
20240521024010 53 0.0 0.0 0.00 0.00 0.00 89 1016.7
20240521023510 53 0.0 0.0 0.00 0.00 0.00 89 1016.7
20240521023010 53 0.0 0.0 0.00 0.00 0.00 89 1016.7
20240521022510 53 0.0 0.0 0.00 0.00 0.00 89 1016.6
20240521022010 53 0.0 0.0 0.00 0.00 0.00 89 1016.5
20240521021510 53 0.0 0.0 0.00 0.00 0.00 88 1016.6
20240521021010 53 0.0 0.0 0.00 0.00 0.00 88 1016.5
20240521020510 53 0.0 0.0 0.00 0.00 0.00 88 1016.4
20240521020010 53 0.0 0.0 0.00 0.00 0.00 88 1016.4
20240521015510 53 0.0 0.0 0.00 0.00 0.00 88 1016.5
20240521015010 53 0.0 0.0 0.00 0.00 0.00 87 1016.5
20240521014510 53 0.0 0.0 0.00 0.00 0.00 87 1016.5
20240521014010 54 0.0 0.0 0.00 0.00 0.00 87 1016.6
20240521013510 54 0.0 0.0 0.00 0.00 0.00 87 1016.5
20240521013010 54 0.0 0.0 0.00 0.00 0.00 86 1016.6
20240521012510 54 0.0 0.0 0.00 0.00 0.00 86 1016.6
20240521012010 54 0.0 0.0 0.00 0.00 0.00 86 1016.5
20240521011510 54 0.0 0.0 0.00 0.00 0.00 86 1016.5
20240521011010 55 0.0 0.9 0.00 0.00 0.00 85 1016.5
20240521010510 55 0.0 1.7 0.00 0.00 0.00 85 1016.3
20240521010010 55 0.0 0.0 0.00 0.00 0.00 84 1016.3
20240521005510 55 158 0.9 3.5 0.00 0.00 0.00 84 1016.2
20240521005040 55 0.0 4.3 0.00 0.00 0.00 84 1016.1
20240521004510 56 135 0.9 2.6 0.00 0.00 0.00 83 1016.1
20240521004010 56 135 0.9 3.5 0.00 0.00 0.00 83 1016.0
20240521003510 56 135 1.7 3.5 0.00 0.00 0.00 83 1015.9
20240521003010 56 135 0.9 2.6 0.00 0.00 0.00 83 1016.0
20240521002510 56 90 0.9 2.6 0.00 0.00 0.00 83 1016.0
20240521002010 56 135 0.9 3.5 0.00 0.00 0.00 83 1016.0
20240521001510 56 135 0.9 2.6 0.00 0.00 0.00 82 1016.1
20240521001010 57 135 1.7 4.3 0.00 0.00 0.00 82 1016.1
20240521000510 57 90 0.9 3.5 0.00 0.00 0.00 82 1016.1
20240521000010 57 158 1.7 6.1 0.00 0.00 0.00 82 1016.0
20240520235510 57 158 1.7 6.1 0.00 0.00 0.00 81 1016.0
20240520235010 57 158 2.6 4.3 0.00 0.00 0.00 81 1016.1
20240520234510 58 135 0.9 4.3 0.00 0.00 0.00 81 1016.1
20240520234010 58 135 3.5 7.0 0.00 0.00 0.00 80 1016.1
20240520233510 58 158 2.6 5.2 0.00 0.00 0.00 80 1016.2
20240520233010 58 158 2.6 5.2 0.00 0.00 0.00 80 1016.3
20240520232510 59 135 2.6 6.1 0.00 0.00 0.00 79 1016.3
20240520232010 59 113 1.7 4.3 0.00 0.00 0.00 79 1016.4
20240520231510 59 135 2.6 4.3 0.00 0.00 0.00 78 1016.4
20240520231010 59 113 3.5 6.1 0.00 0.00 0.00 78 1016.4
20240520230510 60 135 3.5 7.0 0.00 0.00 0.00 78 1016.5
20240520230010 60 135 2.6 6.1 0.00 0.00 0.00 78 1016.4
20240520225540 60 135 2.6 5.2 0.00 0.00 0.00 78 1016.3
20240520225010 60 135 3.5 7.0 0.00 0.00 0.00 78 1016.4
20240520224510 60 203 2.6 7.0 0.00 0.00 0.00 77 1016.3
20240520224010 61 135 3.5 6.1 0.00 0.00 0.00 77 1016.3
20240520223510 61 158 2.6 7.0 0.00 0.00 0.00 77 1016.5
20240520223040 61 158 4.3 7.0 0.00 0.00 0.00 77 1016.5
20240520222510 61 135 2.6 6.1 0.00 0.00 0.00 77 1016.5
20240520222010 61 135 3.5 6.1 0.00 0.00 0.00 76 1016.4
20240520221540 61 158 4.3 7.8 0.00 0.00 0.00 76 1016.4
20240520221010 62 135 3.5 7.0 0.00 0.00 0.00 76 1016.5
20240520220510 62 135 3.5 7.0 0.00 0.00 0.00 75 1016.5
20240520220010 62 135 3.5 7.0 0.00 0.00 0.00 75 1016.5
20240520215540 63 135 3.5 7.0 0.00 0.00 0.00 75 1016.5
20240520215040 63 135 2.6 5.2 0.00 0.00 0.00 75 1016.6
20240520214540 63 158 2.6 7.8 0.00 0.00 0.00 75 1016.6
20240520214009 63 158 3.5 6.1 0.00 0.00 0.00 75 1016.6
20240520213540 63 158 3.5 7.8 0.00 0.00 0.00 75 1016.6
20240520213010 63 158 2.6 5.2 0.00 0.00 0.00 74 1016.6
20240520212540 63 90 2.6 7.8 0.00 0.00 0.00 74 1016.6
20240520212010 63 158 2.6 6.1 0.00 0.00 0.00 75 1016.6
20240520211510 63 158 3.5 7.0 0.00 0.00 0.00 74 1016.6
20240520211010 63 135 4.3 7.8 0.00 0.00 0.00 74 1016.7
20240520210540 63 158 3.5 7.0 0.00 0.00 0.00 74 1016.8
20240520210009 63 158 3.5 7.0 0.00 0.00 0.00 73 1016.8
20240520205510 63 203 2.6 6.1 0.00 0.00 0.00 74 1016.8
20240520205040 63 135 2.6 7.0 0.00 0.00 0.00 74 1016.8
20240520204510 63 158 3.5 7.0 0.00 0.00 0.00 73 1016.8
20240520204110 64 158 3.5 6.1 0.00 0.00 0.00 72 1016.6
20240520203540 65 158 3.5 7.8 0.00 0.00 0.00 72 1016.8
20240520203010 65 158 3.5 7.0 0.00 0.00 0.00 72 1016.9
20240520202540 64 158 2.6 7.0 0.00 0.00 0.00 71 1017.0
20240520202010 65 158 4.3 8.7 0.00 0.00 0.00 71 1017.0
20240520201510 65 113 4.3 8.7 0.00 0.00 0.00 71 1016.9
20240520201040 65 113 3.5 7.0 0.00 0.00 0.00 71 1017.0
20240520200510 65 135 4.3 8.7 0.00 0.00 0.00 70 1017.0
20240520200110 65 135 3.5 7.8 0.00 0.00 0.00 71 1017.0
20240520195540 65 158 3.5 7.8 0.00 0.00 0.00 71 1017.0
20240520195009 65 158 3.5 7.8 0.00 0.00 0.00 70 1017.1
20240520194512 66 158 1.7 4.3 0.00 0.00 0.00 72 1017.1
20240520194040 66 158 2.6 6.1 0.00 0.00 0.00 71 1017.1
20240520193509 66 158 3.5 7.8 0.00 0.00 0.00 72 1017.1
20240520193009 66 135 3.5 8.7 0.00 0.00 0.00 73 1017.2
20240520192509 66 135 3.5 7.0 0.00 0.00 0.00 71 1017.3
20240520192009 65 135 3.5 7.8 0.00 0.00 0.00 71 1017.4
20240520191510 66 180 2.6 6.1 0.00 0.00 0.00 70 1017.4
20240520191009 66 135 2.6 7.0 0.00 0.00 0.00 72 1017.4
20240520190510 65 135 4.3 9.6 0.00 0.00 0.00 71 1017.6
20240520190009 66 135 3.5 7.0 0.00 0.00 0.00 70 1017.7
20240520185540 66 113 4.3 7.8 0.00 0.00 0.00 70 1017.6
20240520185010 66 135 3.5 7.0 0.00 0.00 0.00 71 1017.4
20240520184539 65 135 3.5 7.8 0.00 0.00 0.00 71 1017.6
20240520184009 65 158 3.5 7.0 0.00 0.00 0.00 73 1017.7
20240520183509 65 113 3.5 7.0 0.00 0.00 0.00 73 1017.7
20240520183240 65 158 3.5 7.8 0.00 0.00 0.00 72 1017.7
20240520182510 66 135 4.3 7.8 0.00 0.00 0.00 72 1017.7
20240520182009 66 135 4.3 9.6 0.00 0.00 0.00 72 1017.8
20240520181509 66 135 3.5 7.8 0.00 0.00 0.00 71 1017.8
20240520181010 66 158 3.5 8.7 0.00 0.00 0.00 71 1017.7
20240520180539 66 135 3.5 8.7 0.00 0.00 0.00 72 1017.8
20240520180009 66 90 3.5 9.6 0.00 0.00 0.00 72 1017.7
20240520175539 66 90 2.6 7.8 0.00 0.00 0.00 73 1017.7
20240520175009 66 90 2.6 7.0 0.00 0.00 0.00 71 1017.7
20240520174509 66 158 2.6 6.1 0.00 0.00 0.00 73 1017.7
20240520174010 66 158 2.6 7.0 0.00 0.00 0.00 73 1017.7
20240520173509 66 158 2.6 8.7 0.00 0.00 0.00 72 1017.7
20240520173009 65 90 2.6 8.7 0.00 0.00 0.00 75 1017.8
20240520172509 65 90 4.3 8.7 0.00 0.00 0.00 74 1017.8
20240520172040 66 113 2.6 5.2 0.00 0.00 0.00 74 1017.8
20240520171540 65 113 2.6 7.0 0.00 0.00 0.00 74 1017.7
20240520171009 65 158 2.6 6.1 0.00 0.00 0.00 75 1017.7
20240520170509 65 113 2.6 6.1 0.00 0.00 0.00 74 1017.7
20240520170009 65 113 2.6 6.1 0.00 0.00 0.00 73 1017.8
20240520165509 65 135 2.6 7.0 0.00 0.00 0.00 72 1017.9
20240520164540 64 135 0.9 2.6 0.00 0.00 0.00 74 1017.9
20240520164040 64 135 1.7 6.1 0.00 0.00 0.00 76 1018.0
20240520163509 63 203 1.7 3.5 0.00 0.00 0.00 78 1018.1
20240520163039 62 180 1.7 4.3 0.00 0.00 0.00 77 1018.3
20240520162509 62 113 1.7 5.2 0.00 0.00 0.00 78 1018.3
20240520162009 61 0 0.9 3.5 0.00 0.00 0.00 77 1018.4
20240520161540 61 0.0 1.7 0.00 0.00 0.00 79 1018.4
20240520161009 61 0.0 0.0 0.00 0.00 0.00 80 1018.4
20240520160509 61 0.0 0.9 0.00 0.00 0.00 78 1018.5
20240520160009 61 45 0.9 1.7 0.00 0.00 0.00 79 1018.5
20240520155509 60 23 0.9 1.7 0.00 0.00 0.00 78 1018.4
20240520155009 60 90 0.9 2.6 0.00 0.00 0.00 79 1018.5
20240520154509 60 90 1.7 3.5 0.00 0.00 0.00 79 1018.5
20240520154009 60 90 0.9 3.5 0.00 0.00 0.00 79 1018.7
20240520153509 60 90 1.7 3.5 0.00 0.00 0.00 80 1018.7
20240520153009 60 0.0 0.9 0.00 0.00 0.00 81 1018.7
20240520152509 60 90 0.9 2.6 0.00 0.00 0.00 80 1018.6
20240520152009 59 90 0.9 1.7 0.00 0.00 0.00 80 1018.7
20240520151510 60 90 1.7 4.3 0.00 0.00 0.00 80 1018.6
20240520151009 60 135 2.6 5.2 0.00 0.00 0.00 81 1018.6
20240520150509 59 293 0.9 4.3 0.00 0.00 0.00 83 1018.4
20240520150009 59 0.0 0.9 0.00 0.00 0.00 82 1018.3
20240520145509 59 68 0.9 2.6 0.00 0.00 0.00 81 1018.2
20240520145009 59 90 0.9 3.5 0.00 0.00 0.00 82 1018.1
20240520144509 59 113 1.7 5.2 0.00 0.00 0.00 82 1018.2
20240520144009 58 68 2.6 5.2 0.00 0.00 0.00 82 1018.3
20240520143509 58 23 0.9 2.6 0.00 0.00 0.00 83 1018.2
20240520143040 58 158 1.7 4.3 0.00 0.00 0.00 83 1018.1
20240520142510 58 158 1.7 5.2 0.00 0.00 0.00 83 1018.0
20240520142009 58 0.0 2.6 0.00 0.00 0.00 83 1018.2
20240520141539 58 0 0.9 1.7 0.00 0.00 0.00 84 1018.3
20240520141039 57 338 0.9 2.6 0.00 0.00 0.00 84 1018.2
20240520140509 57 0 0.9 3.5 0.00 0.00 0.00 84 1018.2
20240520140009 57 0 0.9 2.6 0.00 0.00 0.00 84 1018.3
20240520135509 57 0 0.9 2.6 0.00 0.00 0.00 84 1018.4
20240520135009 57 90 1.7 3.5 0.00 0.00 0.00 85 1018.4
20240520134509 57 45 0.9 2.6 0.00 0.00 0.00 85 1018.4
20240520134009 56 45 0.9 3.5 0.00 0.00 0.00 85 1018.6
20240520133509 56 315 0.9 0.9 0.00 0.00 0.00 85 1018.6
20240520133009 56 315 0.9 1.7 0.00 0.00 0.00 85 1018.7
20240520132509 56 68 0.9 2.6 0.00 0.00 0.00 85 1018.8
20240520132009 56 68 0.9 2.6 0.00 0.00 0.00 86 1018.7
20240520131509 56 68 0.9 3.5 0.00 0.00 0.00 86 1018.7
20240520131009 56 0.0 1.7 0.00 0.00 0.00 86 1018.7
20240520130509 56 90 0.9 3.5 0.00 0.00 0.00 86 1018.6
20240520130009 56 90 1.7 4.3 0.00 0.00 0.00 87 1018.7
20240520125509 56 158 0.9 3.5 0.00 0.00 0.00 88 1018.7
20240520125009 55 68 0.9 2.6 0.00 0.00 0.00 88 1018.6
20240520124509 55 90 0.9 1.7 0.00 0.00 0.00 89 1018.7
20240520124009 55 90 0.9 3.5 0.00 0.00 0.00 89 1018.7
20240520123509 55 23 0.9 2.6 0.00 0.00 0.00 89 1018.7
20240520123009 54 0 0.9 3.5 0.00 0.00 0.00 89 1018.7
20240520122509 54 23 0.9 3.5 0.00 0.00 0.00 90 1018.7
20240520122039 54 338 0.9 2.6 0.00 0.00 0.00 90 1018.6
20240520121509 54 45 0.9 4.3 0.00 0.00 0.00 90 1018.5
20240520121009 54 45 0.9 1.7 0.00 0.00 0.00 91 1018.6
20240520120539 54 0.0 1.7 0.00 0.00 0.00 91 1018.4
20240520120009 54 0.0 1.7 0.00 0.00 0.00 91 1018.5
20240520115509 53 0.0 2.6 0.00 0.00 0.00 91 1018.5
20240520115009 53 0.0 0.9 0.00 0.00 0.00 91 1018.6
20240520114509 53 23 0.9 1.7 0.00 0.00 0.00 91 1018.5
20240520114009 53 45 0.9 1.7 0.00 0.00 0.00 91 1018.4
20240520113509 53 0.0 2.6 0.00 0.00 0.00 91 1018.3
20240520113039 53 0.0 0.9 0.00 0.00 0.00 91 1018.2
20240520112509 53 90 0.9 2.6 0.00 0.00 0.00 91 1018.2
20240520112009 53 45 0.9 2.6 0.00 0.00 0.00 91 1018.3
20240520111509 52 68 0.9 4.3 0.00 0.00 0.00 91 1018.2
20240520111009 52 0.0 1.7 0.00 0.00 0.00 91 1018.2
20240520110509 52 0.0 0.9 0.00 0.00 0.00 91 1018.2
20240520110009 52 0.0 1.7 0.00 0.00 0.00 92 1018.2
20240520105509 52 0.0 0.9 0.00 0.00 0.00 92 1018.2
20240520105009 52 0.0 1.7 0.00 0.00 0.00 92 1018.2
20240520104509 52 0.0 0.0 0.00 0.00 0.00 92 1018.0
20240520104039 52 0.0 0.0 0.00 0.00 0.00 92 1017.9
20240520103509 51 0.0 0.0 0.00 0.00 0.00 92 1017.9
20240520103009 51 0.0 0.9 0.00 0.00 0.00 92 1018.1
20240520102509 51 0.0 0.9 0.00 0.00 0.00 92 1018.0
20240520102039 51 0.0 1.7 0.00 0.00 0.00 92 1018.0
20240520101508 51 0.0 0.9 0.00 0.00 0.00 92 1017.9
20240520101009 51 0.0 1.7 0.00 0.00 0.00 92 1017.9
20240520100508 51 0.0 0.9 0.00 0.01 0.00 92 1018.0
20240520100109 51 0.0 0.9 0.00 0.01 0.00 92 1017.9
20240520095508 51 0.0 0.9 0.00 0.01 0.00 92 1017.9
20240520095009 50 0.0 0.0 0.00 0.01 0.00 92 1017.9
20240520094539 50 0.0 0.0 0.00 0.01 0.00 92 1017.8
20240520094109 50 0.0 0.0 0.00 0.01 0.00 92 1017.9
20240520093538 49 0.0 0.0 0.00 0.01 0.00 92 1017.8
20240520093009 49 0.0 0.0 0.00 0.01 0.00 92 1017.7
20240520092509 49 0.0 0.0 0.00 0.01 0.00 92 1017.7
20240520092008 49 0.0 0.0 0.00 0.01 0.00 92 1017.7
20240520091508 49 0.0 0.0 0.00 0.01 0.00 92 1017.8
20240520091009 49 0.0 0.0 0.00 0.01 0.00 92 1017.8
20240520090539 48 0.0 0.0 0.00 0.01 0.00 92 1017.8
20240520090008 48 0.0 0.0 0.00 0.01 0.00 92 1017.8
20240520085508 48 0.0 0.0 0.00 0.01 0.00 92 1017.8
20240520085008 48 0.0 0.0 0.00 0.01 0.00 92 1017.7
20240520084508 48 0.0 0.0 0.00 0.01 0.00 92 1017.7
20240520084009 47 0.0 0.0 0.00 0.01 0.00 92 1017.8
20240520083508 47 0.0 0.0 0.00 0.01 0.00 92 1017.8
20240520083009 47 0.0 0.0 0.00 0.01 0.00 92 1017.7
20240520082509 47 0.0 0.0 0.00 0.01 0.00 92 1017.7
20240520082008 47 0.0 0.0 0.00 0.01 0.00 92 1017.7
20240520081508 46 0.0 0.0 0.00 0.01 0.00 92 1017.6
20240520081008 46 0.0 0.0 0.00 0.01 0.00 92 1017.7
20240520080508 46 0.0 0.0 0.00 0.01 0.00 92 1017.8
20240520080039 46 0.0 0.0 0.00 0.02 0.00 92 1017.7
20240520075509 46 0.0 0.0 0.00 0.02 0.00 92 1017.7
20240520075008 47 0.0 0.0 0.00 0.02 0.00 92 1017.7
20240520074508 47 0.0 0.0 0.00 0.02 0.00 92 1017.8
20240520074008 46 0.0 0.0 0.00 0.02 0.00 92 1017.6
20240520073508 46 0.0 0.0 0.00 0.02 0.00 92 1017.5
20240520073009 46 0.0 0.0 0.00 0.02 0.00 92 1017.5
20240520072508 46 0.0 0.0 0.00 0.02 0.00 92 1017.4
20240520072008 46 0.0 0.0 0.00 0.02 0.00 92 1017.4
20240520071508 47 0.0 0.0 0.00 0.02 0.00 92 1017.5
20240520071009 46 0.0 0.0 0.00 0.02 0.00 92 1017.4
20240520070508 46 0.0 0.0 0.00 0.02 0.00 92 1017.3
20240520070008 46 0.0 0.0 0.00 0.02 0.00 92 1017.4
20240520065508 46 0.0 0.0 0.00 0.02 0.00 92 1017.4
20240520065008 47 0.0 0.0 0.00 0.02 0.00 91 1017.4
20240520064508 47 0.0 0.0 0.00 0.02 0.00 91 1017.5
20240520064008 47 0.0 0.0 0.00 0.02 0.00 91 1017.6
20240520063508 47 0.0 0.0 0.00 0.02 0.00 91 1017.7
20240520063008 47 0.0 0.0 0.00 0.02 0.00 91 1017.7
20240520062508 47 0.0 0.0 0.00 0.02 0.00 91 1017.8
20240520062008 47 0.0 0.0 0.00 0.02 0.00 92 1017.9
20240520061508 47 0.0 0.0 0.00 0.02 0.00 92 1017.9
20240520061008 48 0.0 0.0 0.00 0.02 0.00 92 1017.9
20240520060609 48 0.0 0.0 0.00 0.02 0.00 91 1017.8
20240520060008 48 0.0 0.0 0.00 0.02 0.00 91 1017.9
20240520055508 48 0.0 0.0 0.00 0.02 0.00 91 1017.8
20240520055008 48 0.0 0.0 0.00 0.02 0.00 91 1017.8
20240520054508 48 0.0 0.0 0.00 0.02 0.00 91 1017.8
20240520054008 49 0.0 0.0 0.00 0.02 0.00 91 1017.9
20240520053508 49 0.0 0.0 0.00 0.02 0.00 91 1017.9
20240520053008 49 0.0 0.0 0.00 0.02 0.00 91 1018.0
20240520052508 49 0.0 0.0 0.00 0.02 0.00 92 1018.0
20240520052009 48 0.0 0.0 0.00 0.02 0.00 91 1018.1
20240520051508 48 0.0 0.0 0.00 0.02 0.00 91 1018.1
20240520051008 48 0.0 0.0 0.00 0.02 0.00 91 1018.1
20240520050508 48 0.0 0.0 0.00 0.02 0.00 91 1018.2
20240520050038 48 0.0 0.0 0.00 0.02 0.00 91 1018.0
20240520045508 48 0.0 0.0 0.00 0.02 0.00 91 1018.1
20240520045008 48 0.0 0.0 0.00 0.02 0.00 91 1018.1
20240520044538 48 0.0 0.0 0.00 0.02 0.00 91 1018.1
20240520044008 48 0.0 0.0 0.00 0.02 0.00 91 1018.0
20240520043508 48 0.0 0.0 0.00 0.02 0.00 91 1018.0
20240520043010 48 0.0 0.0 0.00 0.02 0.00 91 1018.0
20240520042510 48 0.0 0.0 0.00 0.02 0.00 91 1018.0
20240520042010 48 0.0 0.0 0.00 0.02 0.00 91 1017.9
20240520041510 48 0.0 0.0 0.00 0.02 0.00 91 1018.0
20240520041110 48 0.0 0.0 0.00 0.02 0.00 91 1018.0
20240520040510 48 0.0 0.0 0.00 0.02 0.00 91 1017.9
20240520040009 48 0.0 0.0 0.00 0.02 0.02 91 1018.0
20240520035540 48 0.0 0.0 0.00 0.02 0.02 91 1017.9
20240520035010 48 0.0 0.0 0.00 0.02 0.02 90 1017.8
20240520034540 48 0.0 0.0 0.00 0.02 0.02 91 1017.9
20240520034040 48 0.0 0.0 0.00 0.02 0.02 91 1018.0
20240520033510 49 0.0 0.0 0.00 0.02 0.02 90 1018.1
20240520033010 49 0.0 0.0 0.00 0.02 0.02 90 1018.2
20240520032510 49 0.0 0.0 0.00 0.03 0.02 90 1018.2
20240520032010 49 0.0 0.9 0.00 0.03 0.02 90 1018.1
20240520031540 49 0.0 0.9 0.00 0.03 0.02 90 1018.1